Highgate, VT

3:39 AM EDT on May 26, 2017 (GMT -0400)
Franklin County State

Weather History for KFSO - April, 2014

Change the Weather History Date:

Thursday, April 10, 2014

  Actual Average (KPBG) Record (KPBG)
Temperature  
Mean Temperature 46 °F -  
Max Temperature 63 °F 50 °F 81 °F (2017)
Min Temperature 29 °F 31 °F 20 °F (1974)
Degree Days  
Heating Degree Days 19    
Moisture  
Dew Point 24 °F    
Average Humidity 39    
Maximum Humidity 73    
Minimum Humidity 24    
Precipitation  
Precipitation 0.00 in - - ()
Sea Level Pressure  
Sea Level Pressure 29.85 in    
Wind  
Wind Speed 9 mph (South)    
Max Wind Speed 23 mph    
Max Gust Speed 36 mph    
Visibility 10 miles    
Events      
Averages and records for this station are not official NWS values.
T = Trace of Precipitation, MM = Missing Value Source: NWS Daily Summary

Daily Weather History Graph

Daily Weather History Graph

Search for Another Location

Airport or City:

Trip Planner

Search our weather history database for the weather conditions in past years. The results will help you decide how hot, cold, wet, or windy it might be!

Date:

Astronomy

Apr. 10, 2014 Rise Set
Actual Time 6:16 AM EDT 7:31 PM EDT
Civil Twilight 5:46 AM EDT 8:01 PM EDT
Nautical Twilight 5:10 AM EDT 8:38 PM EDT
Astronomical Twilight 4:31 AM EDT 9:16 PM EDT
Moon 3:02 PM EDT (4/10) 3:49 AM EDT (4/10)
Length of Visible Light 14h 15m
Length of Day
13h 14m
Waxing Gibbous, 79% of the Moon is Illuminated
Apr 10
Waxing Gibbous
Apr 15
Full
Apr 22
Last Quarter
Apr 29
New
May 6
First Quarter

Hourly Weather History & Observations

Time (EDT) Temp. Windchill Dew Point Humidity Pressure Visibility Wind Dir Wind Speed Gust Speed Precip Events Conditions
12:15 AM 29.5 °F 24.5 °F 21.7 °F 73% 29.93 in 10.0 mi South 4.6 mph - N/A   Clear
12:35 AM 30.9 °F 26.2 °F 21.9 °F 69% 29.93 in 10.0 mi South 4.6 mph - N/A   Clear
12:55 AM 30.9 °F 26.2 °F 20.3 °F 65% 29.93 in 10.0 mi SSE 4.6 mph - N/A   Clear
1:15 AM 31.3 °F 27.9 °F 18.0 °F 58% 29.94 in 10.0 mi South 3.5 mph - N/A   Clear
1:35 AM 33.1 °F 28.7 °F 16.2 °F 50% 29.94 in 10.0 mi South 4.6 mph - N/A   Clear
1:55 AM 33.1 °F 28.7 °F 16.0 °F 50% 29.93 in 10.0 mi South 4.6 mph - N/A   Clear
2:15 AM 31.1 °F 26.4 °F 16.7 °F 55% 29.93 in 10.0 mi South 4.6 mph - N/A   Clear
2:35 AM 31.8 °F 27.3 °F 18.1 °F 57% 29.94 in 10.0 mi South 4.6 mph - N/A   Clear
2:55 AM 35.6 °F 31.7 °F 19.0 °F 51% 29.94 in 10.0 mi South 4.6 mph - N/A   Clear
3:15 AM 35.6 °F 32.8 °F 18.5 °F 50% 29.94 in 10.0 mi South 3.5 mph - N/A   Clear
3:35 AM 33.1 °F 28.7 °F 19.0 °F 56% 29.94 in 10.0 mi South 4.6 mph - N/A   Clear
3:55 AM 32.0 °F 27.5 °F 19.4 °F 60% 29.95 in 10.0 mi South 4.6 mph - N/A   Clear
4:15 AM 32.5 °F 28.1 °F 19.4 °F 58% 29.95 in 10.0 mi South 4.6 mph - N/A   Clear
4:35 AM 32.7 °F - 19.0 °F 57% 29.95 in 10.0 mi Calm Calm - N/A   Clear
4:55 AM 33.3 °F 27.1 °F 17.8 °F 53% 29.96 in 10.0 mi South 6.9 mph - N/A   Clear
5:15 AM 35.6 °F 29.9 °F 18.5 °F 50% 29.95 in 10.0 mi South 6.9 mph - N/A   Clear
5:35 AM 35.6 °F 31.7 °F 19.2 °F 51% 29.96 in 10.0 mi South 4.6 mph - N/A   Clear
5:55 AM 35.6 °F 29.9 °F 19.4 °F 52% 29.97 in 10.0 mi South 6.9 mph - N/A   Clear
6:15 AM 35.6 °F 29.2 °F 19.4 °F 52% 29.97 in 10.0 mi South 8.1 mph - N/A   Clear
6:35 AM 35.6 °F 30.7 °F 20.3 °F 54% 29.97 in 10.0 mi South 5.8 mph - N/A   Clear
6:55 AM 35.6 °F 30.7 °F 20.7 °F 55% 29.97 in 10.0 mi South 5.8 mph - N/A   Clear
7:15 AM 36.5 °F 32.7 °F 20.3 °F 52% 29.98 in 10.0 mi SSW 4.6 mph - N/A   Clear
7:35 AM 38.3 °F 33.9 °F 21.0 °F 50% 29.99 in 10.0 mi South 5.8 mph - N/A   Clear
7:55 AM 38.8 °F 32.1 °F 20.3 °F 47% 29.98 in 10.0 mi South 10.4 mph 17.3 mph N/A   Clear
8:15 AM 41.0 °F 35.2 °F 21.2 °F 45% 29.98 in 10.0 mi South 9.2 mph 17.3 mph N/A   Clear
8:35 AM 41.5 °F 35.9 °F 20.7 °F 43% 29.98 in 10.0 mi South 9.2 mph 18.4 mph N/A   Clear
8:55 AM 43.2 °F 37.0 °F 21.4 °F 42% 29.97 in 10.0 mi South 11.5 mph 19.6 mph N/A   Clear
9:15 AM - - - N/A% 29.96 in - North - - N/A   Unknown
9:35 AM 45.9 °F 40.8 °F 21.4 °F 38% 29.96 in 10.0 mi South 10.4 mph 20.7 mph N/A   Clear
9:55 AM 48.4 °F - 23.4 °F 37% 29.95 in 10.0 mi South 15.0 mph 20.7 mph N/A   Clear
10:15 AM 50.9 °F - 24.4 °F 36% 29.94 in 10.0 mi South 13.8 mph 25.3 mph N/A   Clear
10:35 AM 50.9 °F - 23.5 °F 34% 29.93 in 10.0 mi South 11.5 mph 18.4 mph N/A   Scattered Clouds
10:55 AM 50.9 °F - 23.0 °F 34% 29.93 in 10.0 mi South 12.7 mph 21.9 mph N/A   Scattered Clouds
11:15 AM 51.1 °F - 22.6 °F 33% 29.92 in 10.0 mi South 15.0 mph 25.3 mph N/A   Scattered Clouds
11:35 AM 51.8 °F - 23.4 °F 33% 29.92 in 10.0 mi South 16.1 mph 23.0 mph N/A   Scattered Clouds
11:55 AM 53.4 °F - 24.3 °F 32% 29.90 in 10.0 mi South 13.8 mph 23.0 mph N/A   Mostly Cloudy
12:15 PM 53.6 °F - 24.1 °F 32% 29.90 in 10.0 mi South 11.5 mph 23.0 mph N/A   Overcast
12:35 PM 53.6 °F - 23.9 °F 32% 29.89 in 10.0 mi South 13.8 mph 24.2 mph N/A   Overcast
12:55 PM 55.9 °F - 24.1 °F 29% 29.87 in 10.0 mi South 12.7 mph 25.3 mph N/A   Overcast
1:15 PM 57.7 °F - 25.0 °F 28% 29.86 in 10.0 mi South 11.5 mph 24.2 mph N/A   Scattered Clouds
1:35 PM 58.5 °F - 24.4 °F 27% 29.84 in 10.0 mi South 12.7 mph 25.3 mph N/A   Clear
1:55 PM 61.0 °F - 25.7 °F 26% 29.83 in 10.0 mi South 12.7 mph 19.6 mph N/A   Clear
2:15 PM 61.0 °F - 24.3 °F 25% 29.82 in 10.0 mi South 12.7 mph 26.5 mph N/A   Clear
2:55 PM 62.2 °F - 24.4 °F 24% 29.80 in 10.0 mi South 15.0 mph 24.2 mph N/A   Clear
3:15 PM 62.2 °F - 25.2 °F 24% 29.78 in 10.0 mi South 23.0 mph 32.2 mph N/A   Clear
3:35 PM 63.5 °F - 26.4 °F 25% 29.77 in 10.0 mi South 18.4 mph 33.4 mph N/A   Clear
3:55 PM 62.8 °F - 27.0 °F 26% 29.75 in 10.0 mi South 19.6 mph 29.9 mph N/A   Scattered Clouds
4:15 PM 63.5 °F - 27.9 °F 26% 29.74 in 10.0 mi South 15.0 mph 26.5 mph N/A   Mostly Cloudy
4:35 PM 63.5 °F - 27.5 °F 26% 29.72 in 10.0 mi South 18.4 mph 29.9 mph N/A   Scattered Clouds
4:55 PM 63.5 °F - 27.9 °F 26% 29.71 in 10.0 mi South 18.4 mph 33.4 mph N/A   Clear
5:15 PM 63.5 °F - 27.9 °F 26% 29.71 in 10.0 mi South 16.1 mph 35.7 mph N/A   Clear
5:35 PM 63.7 °F - 27.9 °F 26% 29.71 in 10.0 mi South 16.1 mph 26.5 mph N/A   Clear
5:55 PM 63.5 °F - 27.9 °F 26% 29.69 in 10.0 mi South 17.3 mph 31.1 mph N/A   Clear
6:15 PM 63.5 °F - 28.4 °F 27% 29.69 in 10.0 mi South 11.5 mph 27.6 mph N/A   Clear
6:35 PM 62.2 °F - 27.9 °F 27% 29.69 in 10.0 mi South 17.3 mph 34.5 mph N/A   Clear
6:55 PM 62.1 °F - 28.2 °F 28% 29.68 in 10.0 mi South 18.4 mph 26.5 mph N/A   Clear
7:15 PM 61.9 °F - 28.2 °F 28% 29.68 in 10.0 mi South 20.7 mph 28.8 mph N/A   Clear
7:35 PM 61.2 °F - 27.9 °F 28% 29.68 in 10.0 mi South 15.0 mph 26.5 mph N/A   Clear
7:55 PM 61.0 °F - 27.9 °F 28% 29.69 in 10.0 mi South 15.0 mph 24.2 mph N/A   Clear
8:15 PM 61.3 °F - 28.0 °F 28% 29.68 in 10.0 mi South 13.8 mph 26.5 mph N/A   Scattered Clouds
8:35 PM 61.2 °F - 28.2 °F 29% 29.69 in 10.0 mi South 15.0 mph 26.5 mph N/A   Clear
8:55 PM 61.0 °F - 28.4 °F 29% 29.70 in 10.0 mi South 18.4 mph 29.9 mph N/A   Scattered Clouds
9:15 PM 61.0 °F - 28.4 °F 29% 29.71 in 10.0 mi South 16.1 mph 27.6 mph N/A   Overcast
9:35 PM 61.0 °F - 28.8 °F 30% 29.71 in 10.0 mi South 17.3 mph 27.6 mph N/A   Mostly Cloudy
9:55 PM 61.0 °F - 29.1 °F 30% 29.73 in 10.0 mi South 12.7 mph 26.5 mph N/A   Mostly Cloudy
10:15 PM 61.0 °F - 29.3 °F 30% 29.74 in 10.0 mi South 11.5 mph 21.9 mph N/A   Overcast
10:35 PM 61.0 °F - 30.0 °F 31% 29.74 in 10.0 mi South 10.4 mph 24.2 mph N/A   Overcast
10:55 PM 61.0 °F - 30.2 °F 31% 29.74 in 10.0 mi South 10.4 mph 23.0 mph N/A   Overcast
11:15 PM 59.4 °F - 29.5 °F 32% 29.74 in 10.0 mi South 15.0 mph 27.6 mph N/A   Overcast
11:35 PM 58.5 °F - 29.3 °F 33% 29.73 in 10.0 mi South 17.3 mph 24.2 mph N/A   Overcast
11:55 PM 58.5 °F - 29.8 °F 34% 29.73 in 10.0 mi South 13.8 mph 20.7 mph N/A   Overcast